Regional Weather Roundup
Issued by NWS

Home | Current Version | Previous Version | Graphics & Text | Print | Product List | Glossary On
Versions: 1 2 3 4 5 6 7 8 9 10 11 12 13 14 15 16 17 18 19 20 21 22 23 24 25 26 27 28 29 30 31 32 33 34 35 36 37 38 39 40 41 42 43 44 45 46 47 48 49 50
000
ASUS43 KIND 262309
RWRIN

WEATHER ROUNDUP FOR INDIANA
NATIONAL WEATHER SERVICE INDIANAPOLIS IN
700 PM EDT SUN APR 26 2015

NOTE: "FAIR" INDICATES FEW OR NO CLOUDS BELOW 12,000 FEET WITH NO
SIGNIFICANT WEATHER AND/OR OBSTRUCTIONS TO VISIBILITY.

* - STATION DOES NOT REPORT WEATHER SUCH AS PRECIPITATION OR FOG.

+ - STATION NOT QUALITY CONTROLLED BY THE NATIONAL WEATHER SERVICE.
    USE DATA WITH CAUTION...ESPECIALLY DEWPOINT AND RELATIVE
    HUMIDITY OBSERVATIONS.

INZ001>003-010>013-019-020-270000-
NORTHWEST INDIANA

CITY           SKY/WX    TMP DP  RH WIND       PRES   REMARKS
GARY /AIRPORT/ SUNNY     48  28  46 N21       30.01S
KNOX *+        SUNNY     50   9  18 N22       29.95S
LA PORTE +     SUNNY     49  30  48 N21       29.98S
MICHIGAN CITY+ SUNNY     45  27  49 N14G21    30.00R
MONTICELLO +   SUNNY     53  34  47 N16G22    29.94R
VALPARAISO     SUNNY     48  29  47 N13       29.99R

$$

LMZ046-743>745-270000-
SOUTHERN LAKE MICHIGAN

STATION/POSITION TIME  TEMP    WIND        PRES    WAVE
                       AIR SEA DIR/SP/G            HT
                 (UTC) (F)     (DEG/KT/KT) (MB)    (FT)
BURNS HARBOR     2300   43      10/ 15/ 20 1016.3S
MICHIGAN CITY    2300   41      10/ 11/ 13   N/A
5NW MICH CITY    2300   42 45   10/ 16/ 19   N/A     5

$$

INZ004-005-014>016-021>024-270000-
NORTH CENTRAL INDIANA

CITY           SKY/WX    TMP DP  RH WIND       PRES   REMARKS
GOSHEN         SUNNY     55  33  43 N15G22    29.91S
LOGANSPORT +   SUNNY     54  30  40 N16G23    29.93R
PERU/GRISSOM   MOSUNNY   57  34  41 N13       29.90R
ROCHESTER +    SUNNY     55  34  44 N16       29.93R
SOUTH BEND     SUNNY     52  26  36 N22       29.96S
WARSAW +       SUNNY     55  34  44 NW12G17   29.91S

$$

INZ006>009-017-018-025>027-270000-
NORTHEAST INDIANA

CITY           SKY/WX    TMP DP  RH WIND       PRES   REMARKS
ANGOLA *+      MOSUNNY   55  39  54 NE8       29.90R
AUBURN +       MOSUNNY   54  28  37 N12       29.90S
FORT WAYNE     MOSUNNY   56  34  43 N13G20    29.90R
HUNTINGTON +   MOSUNNY   56  31  38 N6        29.89S

$$

INZ028-029-035-036-043>045-051>053-270000-
WEST CENTRAL INDIANA

CITY           SKY/WX    TMP DP  RH WIND       PRES   REMARKS
CRAWFORDSVL +  PTSUNNY   54  28  36 N16       29.92R
GREENCASTLE +  PTSUNNY   54  32  43 NE10      29.92R
LAFAYETTE      SUNNY     53  30  41 N14G24    29.94R
TERRE HAUTE    PTSUNNY   58  37  45 N10       29.92R

$$

INZ030>032-037>040-046>048-054>057-064-065-270000-
CENTRAL INDIANA

CITY           SKY/WX    TMP DP  RH WIND       PRES   REMARKS
CP ATTERBURY + PTSUNNY   57  36  44 N10G20    29.90S
COLUMBUS       SUNNY     55  30  38 N12       29.90R
FISHERS *+     MOSUNNY   54  36  50 N9        29.91R
FRANKFORT +    MOSUNNY   54  36  51 NW10      29.93S
GREENWOOD *+   PTSUNNY   55  30  38 N10G20    29.90R
INDIANAPOLIS   MOSUNNY   56  32  40 N17       29.89S
-EAGLE CREEK   MOSUNNY   56  33  42 N14       29.90R
KOKOMO *+      MOSUNNY   55  36  47 N10       29.90S
MARION +       PTSUNNY   55  31  40 N10       29.90S
MT COMFORT *+  MOSUNNY   54  25  32 N10       29.90S
SHELBYVILLE    PTSUNNY   58  35  42 N7G18     29.89R
ZIONSVILLE +   CLOUDY    56  34  43 N12       29.91S

$$

INZ033-034-041-042-049-050-058-059-270000-
EAST CENTRAL INDIANA

CITY           SKY/WX    TMP DP  RH WIND       PRES   REMARKS
MUNCIE         MOSUNNY   54  34  46 N12       29.89R

$$

INZ060-061-067>069-081>083-085>088-270000-
SOUTHWEST INDIANA

CITY           SKY/WX    TMP DP  RH WIND       PRES   REMARKS
EVANSVILLE     SUNNY     62  34  35 N14       29.88R
HUNTINGBURG *+ SUNNY     61  37  41 NW12      29.87R
WASHINGTON +   SUNNY     60  31  33 N12       29.88R

$$

INZ062-063-066-070>080-084-089>092-270000-
SOUTH CENTRAL AND SOUTHEAST INDIANA

CITY           SKY/WX    TMP DP  RH WIND       PRES   REMARKS
BEDFORD +      MOSUNNY   59  32  36 N8G16     29.88R
BLOOMINGTON    SUNNY     57  36  45 N12       29.90R
MADISON *+     MOSUNNY   59  32  36 NW10      29.88R
NORTH VERNON + MOSUNNY   55  36  47 N10       29.89R
SEYMOUR +      MOSUNNY   59  37  44 N15       29.88R

$$



USA.gov is the U.S. government's official web portal to all federal, state and local government web resources and services.